Weather in Obzor

Bulgaria     42°49′10″N   27°52′50″E
temp.,
°C
wind,
m/s
gust,
m/s
humid.,
%
clouds,
%
prec.,
mm/h
press.,
hPa
HPBL,
m
19 september, sun
sun1900:00+21wnw5106048 0.0 1012560
03:00+20wnw612580 0.0 1012668
06:00+19w49570 0.0 1013489
09:00+20w57555 0.0 1013529
12:00+23sw455136 0.0 1013268
15:00+23s7756100 0.0 1012305
18:00+22s887395 0.0 1011225
21:00+22ssw697559 0.0 1012294
20 september, mon
mon2000:00+21s567784 0.1 1011347
03:00+21sw3476100 0.1 1011231
06:00+21nnw4472100 0.0 1011167
09:00+22n55675 0.1 1012273
12:00+22ne65605 0.0 1012321
15:00+22ene767241 0.0 1012396
18:00+21ene77785 0.0 1011450
21:00+21ne558059 0.1 1013459
21 september, tue
tue2100:00+20ene2383100 2.1 1013437
03:00+19n3491100 10.4 1014247
06:00+20n568356 0.6 1014499
09:00+18n91086100 0.6 1016656
12:00+16nne9984100 0.1 1019734
15:00+15nne9883100 0.1 1020812
18:00+14nne878189 0.1 1020741
21:00+15nne566937 0.1 1022703
22 september, wed
wed2200:00+15nnw55660 0.0 1022584
03:00+15nne66665 0.0 1022794
06:00+14n666669 0.0 1022707
09:00+14n556364 0.0 1021727
12:00+14nne656245 0.0 1021822
15:00+15ne5557100 0.0 1019813
18:00+16ene4450100 0.0 10181000
21:00+16e3350100 0.0 10181369
23 september, thu
thu2300:00+16nne4452100 0.1 10171466
03:00+14nnw5560100 0.3 1017646
06:00+14n775795 0.0 1017952
09:00+14n99615 0.0 10181093
12:00+15n78546 0.0 10181516
15:00+16ne4543100 0.0 10171611
18:00+17n244078 0.0 10171818
21:00+17sw22425 0.0 1018999